Regional Weather Roundup
Issued by NWS

Home | Current Version | Previous Version | Text Only | Print | Product List | Glossary Off
Versions: 1 2 3 4 5 6 7 8 9 10 11 12 13 14 15 16 17 18 19 20 21 22 23 24 25 26 27 28 29 30 31 32 33 34 35 36 37 38 39 40 41 42 43 44 45 46 47 48 49 50

000
ASUS43 KLMK 010310
RWRKY
KENTUCKY REGIONAL WEATHER ROUNDUP
NATIONAL WEATHER SERVICE LOUISVILLE KY
1100 PM EDT TUE JUN 30 2015

NOTE "FAIR" INDICATES FEW OR NO CLOUDS BELOW 12,000 FEET
WITH NO SIGNIFICANT WEATHER AND/OR OBSTRUCTIONS TO VISIBILITY.

KYZ001>023-026-027-061>063-070>075-010400-
WESTERN AND SOUTH CENTRAL KENTUCKY

CITY           SKY/WX    TMP DP  RH WIND       PRES   REMARKS
PADUCAH        PTCLDY    76  68  76 SW5       29.91R
HENDERSON      CLEAR     72  66  83 SW5       29.89R
OWENSBORO      PTCLDY    73  69  87 CALM      29.92R
HOPKINSVILLE   CLEAR     73  69  87 SW6       29.93R
BOWLING GREEN  CLEAR     76  67  73 SW3       29.94R
GLASGOW        CLEAR     70  69  96 CALM      29.94R
$$

KYZ024-025-028>034-038-045-046-053-010400-
NORTH CENTRAL KENTUCKY

CITY           SKY/WX    TMP DP  RH WIND       PRES   REMARKS
LOUISVILLE/SDF MOCLDY    73  62  68 SE7       29.89R
LOUISVILLE/LOU MOCLDY    71  59  65 E8        29.90R
FORT KNOX      MOCLDY    72  66  83 S5        29.90S
$$

KYZ035>037-039>044-047>052-055>060-089>105-010400-
NORTHEAST KENTUCKY

CITY           SKY/WX    TMP DP  RH WIND       PRES   REMARKS
LEXINGTON      TSTM      64  62  93 S7        29.95R FOG
COVINGTON      TSTM      64  61  88 SW7       29.90R FOG
FRANKFORT      CLOUDY    65  63  93 SW5       29.92S FOG
$$

KYZ054-064>069-076>088-106>120-010400-
SOUTHEAST KENTUCKY

CITY           SKY/WX    TMP DP  RH WIND       PRES   REMARKS
JACKSON        MOCLDY    60  58  92 CALM      29.95S
LONDON         MOCLDY    71  63  75 CALM      29.98R
SOMERSET       CLOUDY    68  68 100 CALM      29.96S
MIDDLESBORO    MOCLDY    66  66  97 CALM      29.99R
MONTICELLO     FAIR      68  68 100 CALM      29.98R FOG
$$




USA.gov is the U.S. government's official web portal to all federal, state and local government web resources and services.